Orbital Elements at Epoch 2459200.5 (2020-Dec-17.0) TDB
Reference: JPL 23 (heliocentric ecliptic J2000)
Element | Value | Uncertainty (1-sigma) | Units |
e | .1087271301705738 | 5.1746e-08 | |
a | 2.329205806788648 | 8.4375e-09 | au |
q | 2.075957943839882 | 1.203e-07 | au |
i | 11.69449103301641 | 4.8952e-06 | deg |
node | 228.4927415532639 | 2.1825e-05 | deg |
peri | 328.8285792646059 | 2.7143e-05 | deg |
M | 164.7301276020856 | 1.7986e-05 | deg |
tp | 2458606.370991867779 (2019-May-02.87099187) | 6.3646e-05 | TDB |
period | 1298.405131113925 3.55 | 7.0552e-06 1.932e-08 | d yr |
n | .2772632296139723 | 1.5066e-09 | deg/d |
Q | 2.582453669737414 | 9.3549e-09 | au |
|
| | Orbit Determination Parameters
Additional Information
|